Year,Month,Day,Hour,Minute,Value (Times are PST for temperature in C)
2009,06,19,00,00,15.90
2009,06,19,00,01,15.90
2009,06,19,00,02,15.90
2009,06,19,00,03,15.90
2009,06,19,00,04,15.90
2009,06,19,00,05,15.90
2009,06,19,00,06,15.90
2009,06,19,00,07,15.90
2009,06,19,00,08,15.90
2009,06,19,00,09,15.90
2009,06,19,00,10,15.80
2009,06,19,00,11,15.90
2009,06,19,00,12,15.80
2009,06,19,00,13,15.80
2009,06,19,00,14,15.90
2009,06,19,00,15,15.90
2009,06,19,00,16,15.90
2009,06,19,00,17,15.90
2009,06,19,00,18,15.90
2009,06,19,00,19,15.90
2009,06,19,00,20,15.90
2009,06,19,00,21,15.90
2009,06,19,00,22,15.90
2009,06,19,00,23,15.90
2009,06,19,00,24,15.90
2009,06,19,00,25,15.90
2009,06,19,00,26,15.90
2009,06,19,00,27,15.90
2009,06,19,00,28,15.90
2009,06,19,00,29,15.90
2009,06,19,00,30,15.90
2009,06,19,00,31,15.90
2009,06,19,00,32,15.90
2009,06,19,00,33,15.90
2009,06,19,00,34,15.90
2009,06,19,00,35,15.90
2009,06,19,00,36,16.00
2009,06,19,00,37,16.00
2009,06,19,00,38,16.00
2009,06,19,00,39,16.00
2009,06,19,00,40,16.00
2009,06,19,00,41,16.10
2009,06,19,00,42,16.10
2009,06,19,00,43,16.10
2009,06,19,00,44,16.10
2009,06,19,00,45,16.10
2009,06,19,00,46,16.10
2009,06,19,00,47,16.10
2009,06,19,00,48,16.10
2009,06,19,00,49,16.10
2009,06,19,00,50,16.10
2009,06,19,00,51,16.10
2009,06,19,00,52,16.10
2009,06,19,00,53,16.10
2009,06,19,00,54,16.10
2009,06,19,00,55,16.00
2009,06,19,00,56,16.00
2009,06,19,00,57,16.00
2009,06,19,00,58,16.00
2009,06,19,00,59,16.00
2009,06,19,01,00,16.00
2009,06,19,01,01,16.00
2009,06,19,01,02,16.00
2009,06,19,01,03,16.00
2009,06,19,01,04,16.00
2009,06,19,01,05,15.90
2009,06,19,01,06,15.90
2009,06,19,01,07,15.90
2009,06,19,01,08,15.90
2009,06,19,01,09,15.90
2009,06,19,01,10,15.90
2009,06,19,01,11,15.90
2009,06,19,01,12,15.90
2009,06,19,01,13,15.90
2009,06,19,01,14,15.90
2009,06,19,01,15,15.90
2009,06,19,01,16,15.90
2009,06,19,01,17,15.90
2009,06,19,01,18,15.90
2009,06,19,01,19,15.90
2009,06,19,01,20,15.90
2009,06,19,01,21,15.90
2009,06,19,01,22,15.90
2009,06,19,01,23,15.90
2009,06,19,01,24,15.90
2009,06,19,01,25,15.90
2009,06,19,01,26,15.90
2009,06,19,01,27,15.90
2009,06,19,01,28,15.90
2009,06,19,01,29,15.90
2009,06,19,01,30,15.90
2009,06,19,01,31,15.90
2009,06,19,01,32,15.90
2009,06,19,01,33,15.90
2009,06,19,01,34,15.90
2009,06,19,01,35,15.90
2009,06,19,01,36,15.90
2009,06,19,01,37,15.90
2009,06,19,01,38,15.90
2009,06,19,01,39,15.90
2009,06,19,01,40,15.90
2009,06,19,01,41,15.90
2009,06,19,01,42,15.90
2009,06,19,01,43,15.90
2009,06,19,01,44,15.90
2009,06,19,01,45,15.90
2009,06,19,01,46,15.90
2009,06,19,01,47,15.90
2009,06,19,01,48,15.90
2009,06,19,01,49,15.90
2009,06,19,01,50,15.90
2009,06,19,01,51,15.90
2009,06,19,01,52,15.90
2009,06,19,01,53,15.90
2009,06,19,01,54,15.90
2009,06,19,01,55,15.90
2009,06,19,01,56,15.90
2009,06,19,01,57,15.90
2009,06,19,01,58,15.90
2009,06,19,01,59,15.80
2009,06,19,02,00,15.80
2009,06,19,02,01,15.90
2009,06,19,02,02,15.90
2009,06,19,02,03,15.90
2009,06,19,02,04,15.90
2009,06,19,02,05,15.90
2009,06,19,02,06,15.90
2009,06,19,02,07,15.90
2009,06,19,02,08,15.90
2009,06,19,02,09,15.90
2009,06,19,02,10,15.90
2009,06,19,02,11,15.90
2009,06,19,02,12,15.90
2009,06,19,02,13,15.90
2009,06,19,02,14,15.90
2009,06,19,02,15,15.90
2009,06,19,02,16,15.90
2009,06,19,02,17,15.90
2009,06,19,02,18,15.90
2009,06,19,02,19,15.90
2009,06,19,02,20,15.90
2009,06,19,02,21,15.80
2009,06,19,02,22,15.80
2009,06,19,02,23,15.80
2009,06,19,02,24,15.80
2009,06,19,02,25,15.80
2009,06,19,02,26,15.80
2009,06,19,02,27,15.80
2009,06,19,02,28,15.80
2009,06,19,02,29,15.80
2009,06,19,02,30,15.80
2009,06,19,02,31,15.80
2009,06,19,02,32,15.70
2009,06,19,02,33,15.70
2009,06,19,02,34,15.70
2009,06,19,02,35,15.60
2009,06,19,02,36,15.60
2009,06,19,02,37,15.50
2009,06,19,02,38,15.50
2009,06,19,02,39,15.40
2009,06,19,02,40,15.40
2009,06,19,02,41,15.30
2009,06,19,02,42,15.30
2009,06,19,02,43,15.30
2009,06,19,02,44,15.30
2009,06,19,02,45,15.20
2009,06,19,02,46,15.10
2009,06,19,02,47,15.10
2009,06,19,02,48,15.00
2009,06,19,02,49,15.00
2009,06,19,02,50,15.00
2009,06,19,02,51,15.00
2009,06,19,02,52,15.00
2009,06,19,02,53,15.00
2009,06,19,02,54,14.90
2009,06,19,02,55,14.80
2009,06,19,02,56,14.80
2009,06,19,02,57,14.70
2009,06,19,02,58,14.70
2009,06,19,02,59,14.60
2009,06,19,03,00,14.50
2009,06,19,03,01,14.50
2009,06,19,03,02,14.40
2009,06,19,03,03,14.40
2009,06,19,03,04,14.40
2009,06,19,03,05,14.30
2009,06,19,03,06,14.30
2009,06,19,03,07,14.30
2009,06,19,03,08,14.30
2009,06,19,03,09,14.20
2009,06,19,03,10,14.20
2009,06,19,03,11,14.20
2009,06,19,03,12,14.20
2009,06,19,03,13,14.10
2009,06,19,03,14,14.10
2009,06,19,03,15,14.10
2009,06,19,03,16,14.10
2009,06,19,03,17,14.10
2009,06,19,03,18,14.10
2009,06,19,03,19,14.10
2009,06,19,03,20,14.10
2009,06,19,03,21,14.00
2009,06,19,03,22,14.00
2009,06,19,03,23,14.00
2009,06,19,03,24,14.00
2009,06,19,03,25,14.00
2009,06,19,03,26,14.00
2009,06,19,03,27,14.00
2009,06,19,03,28,14.00
2009,06,19,03,29,13.90
2009,06,19,03,30,13.90
2009,06,19,03,31,13.90
2009,06,19,03,32,13.90
2009,06,19,03,33,13.90
2009,06,19,03,34,13.90
2009,06,19,03,35,13.90
2009,06,19,03,36,13.90
2009,06,19,03,37,13.90
2009,06,19,03,38,13.90
2009,06,19,03,39,13.80
2009,06,19,03,40,13.80
2009,06,19,03,41,13.80
2009,06,19,03,42,13.80
2009,06,19,03,43,13.80
2009,06,19,03,44,13.80
2009,06,19,03,45,13.80
2009,06,19,03,46,13.80
2009,06,19,03,47,13.80
2009,06,19,03,48,13.80
2009,06,19,03,49,13.70
2009,06,19,03,50,13.70
2009,06,19,03,51,13.70
2009,06,19,03,52,13.70
2009,06,19,03,53,13.60
2009,06,19,03,54,13.60
2009,06,19,03,55,13.60
2009,06,19,03,56,13.50
2009,06,19,03,57,13.50
2009,06,19,03,58,13.40
2009,06,19,03,59,13.40
2009,06,19,04,00,13.40
2009,06,19,04,01,13.30
2009,06,19,04,02,13.30
2009,06,19,04,03,13.20
2009,06,19,04,04,13.20
2009,06,19,04,05,13.10
2009,06,19,04,06,13.10
2009,06,19,04,07,13.10
2009,06,19,04,08,13.00
2009,06,19,04,09,13.00
2009,06,19,04,10,12.90
2009,06,19,04,11,12.90
2009,06,19,04,12,12.90
2009,06,19,04,13,12.80
2009,06,19,04,14,12.80
2009,06,19,04,15,12.80
2009,06,19,04,16,12.80
2009,06,19,04,17,12.80
2009,06,19,04,18,12.80
2009,06,19,04,19,12.70
2009,06,19,04,20,12.70
2009,06,19,04,21,12.70
2009,06,19,04,22,12.70
2009,06,19,04,23,12.60
2009,06,19,04,24,12.60
2009,06,19,04,25,12.60
2009,06,19,04,26,12.60
2009,06,19,04,27,12.60
2009,06,19,04,28,12.60
2009,06,19,04,29,12.50
2009,06,19,04,30,12.50
2009,06,19,04,31,12.50
2009,06,19,04,32,12.50
2009,06,19,04,33,12.50
2009,06,19,04,34,12.40
2009,06,19,04,35,12.40
2009,06,19,04,36,12.40
2009,06,19,04,37,12.30
2009,06,19,04,38,12.30
2009,06,19,04,39,12.30
2009,06,19,04,40,12.30
2009,06,19,04,41,12.30
2009,06,19,04,42,12.30
2009,06,19,04,43,12.30
2009,06,19,04,44,12.30
2009,06,19,04,45,12.30
2009,06,19,04,46,12.20
2009,06,19,04,47,12.20
2009,06,19,04,48,12.20
2009,06,19,04,49,12.20
2009,06,19,04,50,12.20
2009,06,19,04,51,12.10
2009,06,19,04,52,12.10
2009,06,19,04,53,12.10
2009,06,19,04,54,12.10
2009,06,19,04,55,12.00
2009,06,19,04,56,12.00
2009,06,19,04,57,12.00
2009,06,19,04,58,12.00
2009,06,19,04,59,12.00
2009,06,19,05,00,12.00
2009,06,19,05,01,12.00
2009,06,19,05,02,12.00
2009,06,19,05,03,12.00
2009,06,19,05,04,12.00
2009,06,19,05,05,12.00
2009,06,19,05,06,12.00
2009,06,19,05,07,12.00
2009,06,19,05,08,12.00
2009,06,19,05,09,12.10
2009,06,19,05,10,12.00
2009,06,19,05,11,12.10
2009,06,19,05,12,12.10
2009,06,19,05,13,12.10
2009,06,19,05,14,12.00
2009,06,19,05,15,12.00
2009,06,19,05,16,12.00
2009,06,19,05,17,12.00
2009,06,19,05,18,12.00
2009,06,19,05,19,12.00
2009,06,19,05,20,12.00
2009,06,19,05,21,12.00
2009,06,19,05,22,12.00
2009,06,19,05,23,12.00
2009,06,19,05,24,11.90
2009,06,19,05,25,11.90
2009,06,19,05,26,11.90
2009,06,19,05,27,11.90
2009,06,19,05,28,11.90
2009,06,19,05,29,11.90
2009,06,19,05,30,11.90
2009,06,19,05,31,11.90
2009,06,19,05,32,11.90
2009,06,19,05,33,11.90
2009,06,19,05,34,11.80
2009,06,19,05,35,11.80
2009,06,19,05,36,11.80
2009,06,19,05,37,11.80
2009,06,19,05,38,11.80
2009,06,19,05,39,11.90
2009,06,19,05,40,11.90
2009,06,19,05,41,11.80
2009,06,19,05,42,11.80
2009,06,19,05,43,11.80
2009,06,19,05,44,11.80
2009,06,19,05,45,11.70
2009,06,19,05,46,11.70
2009,06,19,05,47,11.70
2009,06,19,05,48,11.70
2009,06,19,05,49,11.60
2009,06,19,05,50,11.60
2009,06,19,05,51,11.60
2009,06,19,05,52,11.60
2009,06,19,05,53,11.60
2009,06,19,05,54,11.60
2009,06,19,05,55,11.60
2009,06,19,05,56,11.60
2009,06,19,05,57,11.60
2009,06,19,05,58,11.60
2009,06,19,05,59,11.60
2009,06,19,06,00,11.60
2009,06,19,06,01,11.60
2009,06,19,06,02,11.60
2009,06,19,06,03,11.60
2009,06,19,06,04,11.60
2009,06,19,06,05,11.60
2009,06,19,06,06,11.60
2009,06,19,06,07,11.60
2009,06,19,06,08,11.60
2009,06,19,06,09,11.60
2009,06,19,06,10,11.60
2009,06,19,06,11,11.60
2009,06,19,06,12,11.60
2009,06,19,06,13,11.60
2009,06,19,06,14,11.60
2009,06,19,06,15,11.60
2009,06,19,06,16,11.60
2009,06,19,06,17,11.60
2009,06,19,06,18,11.60
2009,06,19,06,19,11.60
2009,06,19,06,20,11.60
2009,06,19,06,21,11.60
2009,06,19,06,22,11.60
2009,06,19,06,23,11.60
2009,06,19,06,24,11.60
2009,06,19,06,25,11.60
2009,06,19,06,26,11.60
2009,06,19,06,27,11.60
2009,06,19,06,28,11.60
2009,06,19,06,29,11.60
2009,06,19,06,30,11.60
2009,06,19,06,31,11.60
2009,06,19,06,32,11.60
2009,06,19,06,33,11.50
2009,06,19,06,34,11.50
2009,06,19,06,35,11.50
2009,06,19,06,36,11.50
2009,06,19,06,37,11.50
2009,06,19,06,38,11.60
2009,06,19,06,39,11.60
2009,06,19,06,40,11.60
2009,06,19,06,41,11.60
2009,06,19,06,42,11.60
2009,06,19,06,43,11.60
2009,06,19,06,44,11.60
2009,06,19,06,45,11.60
2009,06,19,06,46,11.60
2009,06,19,06,47,11.60
2009,06,19,06,48,11.60
2009,06,19,06,49,11.60
2009,06,19,06,50,11.60
2009,06,19,06,51,11.60
2009,06,19,06,52,11.60
2009,06,19,06,53,11.60
2009,06,19,06,54,11.60
2009,06,19,06,55,11.60
2009,06,19,06,56,11.60
2009,06,19,06,57,11.60
2009,06,19,06,58,11.60
2009,06,19,06,59,11.60
2009,06,19,07,00,11.70
2009,06,19,07,01,11.70
2009,06,19,07,02,11.70
2009,06,19,07,03,11.70
2009,06,19,07,04,11.70
2009,06,19,07,05,11.70
2009,06,19,07,06,11.70
2009,06,19,07,07,11.70
2009,06,19,07,08,11.80
2009,06,19,07,09,11.80
2009,06,19,07,10,11.80
2009,06,19,07,11,11.80
2009,06,19,07,12,11.80
2009,06,19,07,13,11.80
2009,06,19,07,14,11.80
2009,06,19,07,15,11.80
2009,06,19,07,16,11.80
2009,06,19,07,17,11.80
2009,06,19,07,18,11.80
2009,06,19,07,19,11.80
2009,06,19,07,20,11.80
2009,06,19,07,21,11.80
2009,06,19,07,22,11.80
2009,06,19,07,23,11.80
2009,06,19,07,24,11.80
2009,06,19,07,25,11.80
2009,06,19,07,26,11.80
2009,06,19,07,27,11.80
2009,06,19,07,28,11.80
2009,06,19,07,29,11.80
2009,06,19,07,30,11.80
2009,06,19,07,31,11.80
2009,06,19,07,32,11.80
2009,06,19,07,33,11.80
2009,06,19,07,34,11.80
2009,06,19,07,35,11.80
2009,06,19,07,36,11.90
2009,06,19,07,37,11.90
2009,06,19,07,38,11.90
2009,06,19,07,39,11.90
2009,06,19,07,40,11.90
2009,06,19,07,41,11.90
2009,06,19,07,42,11.90
2009,06,19,07,43,11.90
2009,06,19,07,44,12.00
2009,06,19,07,45,12.00
2009,06,19,07,46,12.00
2009,06,19,07,47,12.10
2009,06,19,07,48,12.10
2009,06,19,07,49,12.10
2009,06,19,07,50,12.20
2009,06,19,07,51,12.20
2009,06,19,07,52,12.20
2009,06,19,07,53,12.30
2009,06,19,07,54,12.30
2009,06,19,07,55,12.30
2009,06,19,07,56,12.30
2009,06,19,07,57,12.30
2009,06,19,07,58,12.30
2009,06,19,07,59,12.30
2009,06,19,08,00,12.30
2009,06,19,08,01,12.30
2009,06,19,08,02,12.20
2009,06,19,08,03,12.20
2009,06,19,08,04,12.20
2009,06,19,08,05,12.20
2009,06,19,08,06,12.20
2009,06,19,08,07,12.20
2009,06,19,08,08,12.20
2009,06,19,08,09,12.30
2009,06,19,08,10,12.30
2009,06,19,08,11,12.30
2009,06,19,08,12,12.30
2009,06,19,08,13,12.30
2009,06,19,08,14,12.20
2009,06,19,08,15,12.20
2009,06,19,08,16,12.20
2009,06,19,08,17,12.20
2009,06,19,08,18,12.20
2009,06,19,08,19,12.30
2009,06,19,08,20,12.30
2009,06,19,08,21,12.30
2009,06,19,08,22,12.30
2009,06,19,08,23,12.30
2009,06,19,08,24,12.40
2009,06,19,08,25,12.40
2009,06,19,08,26,12.50
2009,06,19,08,27,12.60
2009,06,19,08,28,12.70
2009,06,19,08,29,12.80
2009,06,19,08,30,12.80
2009,06,19,08,31,12.90
2009,06,19,08,32,12.90
2009,06,19,08,33,13.00
2009,06,19,08,34,13.00
2009,06,19,08,35,13.10
2009,06,19,08,36,13.10
2009,06,19,08,37,13.20
2009,06,19,08,38,13.30
2009,06,19,08,39,13.30
2009,06,19,08,40,13.40
2009,06,19,08,41,13.50
2009,06,19,08,42,13.60
2009,06,19,08,43,13.70
2009,06,19,08,44,13.70
2009,06,19,08,45,13.80
2009,06,19,08,46,13.90
2009,06,19,08,47,13.90
2009,06,19,08,48,14.00
2009,06,19,08,49,14.10
2009,06,19,08,50,14.20
2009,06,19,08,51,14.30
2009,06,19,08,52,14.40
2009,06,19,08,53,14.40
2009,06,19,08,54,14.40
2009,06,19,08,55,14.40
2009,06,19,08,56,14.40
2009,06,19,08,57,14.40
2009,06,19,08,58,14.40
2009,06,19,08,59,14.30
2009,06,19,09,00,14.30
2009,06,19,09,01,14.30
2009,06,19,09,02,14.30
2009,06,19,09,03,14.30
2009,06,19,09,04,14.30
2009,06,19,09,05,14.40
2009,06,19,09,06,14.50
2009,06,19,09,07,14.60
2009,06,19,09,08,14.60
2009,06,19,09,09,14.70
2009,06,19,09,10,14.70
2009,06,19,09,11,14.70
2009,06,19,09,12,14.70
2009,06,19,09,13,14.70
2009,06,19,09,14,14.70
2009,06,19,09,15,14.70
2009,06,19,09,16,14.70
2009,06,19,09,17,14.70
2009,06,19,09,18,14.70
2009,06,19,09,19,14.70
2009,06,19,09,20,14.80
2009,06,19,09,21,14.80
2009,06,19,09,22,14.80
2009,06,19,09,23,14.80
2009,06,19,09,24,14.80
2009,06,19,09,25,14.80
2009,06,19,09,26,14.80
2009,06,19,09,27,14.80
2009,06,19,09,28,14.80
2009,06,19,09,29,14.80
2009,06,19,09,30,14.80
2009,06,19,09,31,15.00
2009,06,19,09,32,15.00
2009,06,19,09,33,15.00
2009,06,19,09,34,15.10
2009,06,19,09,35,15.30
2009,06,19,09,36,15.40
2009,06,19,09,37,15.60
2009,06,19,09,38,15.70
2009,06,19,09,39,15.90
2009,06,19,09,40,16.00
2009,06,19,09,41,16.10
2009,06,19,09,42,16.00
2009,06,19,09,43,15.90
2009,06,19,09,44,15.80
2009,06,19,09,45,15.80
2009,06,19,09,46,15.70
2009,06,19,09,47,15.70
2009,06,19,09,48,15.60
2009,06,19,09,49,15.60
2009,06,19,09,50,15.50
2009,06,19,09,51,15.50
2009,06,19,09,52,15.30
2009,06,19,09,53,15.30
2009,06,19,09,54,15.30
2009,06,19,09,55,15.20
2009,06,19,09,56,15.00
2009,06,19,09,57,15.00
2009,06,19,09,58,15.00
2009,06,19,09,59,15.00
2009,06,19,10,00,15.00
2009,06,19,10,01,15.00
2009,06,19,10,02,15.00
2009,06,19,10,03,15.00
2009,06,19,10,04,15.00
2009,06,19,10,05,15.00
2009,06,19,10,06,15.00
2009,06,19,10,07,15.00
2009,06,19,10,08,15.00
2009,06,19,10,09,15.00
2009,06,19,10,10,15.00
2009,06,19,10,11,15.00
2009,06,19,10,12,15.00
2009,06,19,10,13,15.00
2009,06,19,10,14,15.10
2009,06,19,10,15,15.10
2009,06,19,10,16,15.10
2009,06,19,10,17,15.10
2009,06,19,10,18,15.10
2009,06,19,10,19,15.10
2009,06,19,10,20,15.20
2009,06,19,10,21,15.20
2009,06,19,10,22,15.20
2009,06,19,10,23,15.20
2009,06,19,10,24,15.20
2009,06,19,10,25,15.20
2009,06,19,10,26,15.20
2009,06,19,10,27,15.20
2009,06,19,10,28,15.20
2009,06,19,10,29,15.10
2009,06,19,10,30,15.20
2009,06,19,10,31,15.20
2009,06,19,10,32,15.30
2009,06,19,10,33,15.40
2009,06,19,10,34,15.60
2009,06,19,10,35,15.70
2009,06,19,10,36,15.80
2009,06,19,10,37,15.90
2009,06,19,10,38,16.00
2009,06,19,10,39,16.10
2009,06,19,10,40,16.10
2009,06,19,10,41,16.20
2009,06,19,10,42,16.20
2009,06,19,10,43,16.20
2009,06,19,10,44,16.20
2009,06,19,10,45,16.10
2009,06,19,10,46,16.00
2009,06,19,10,47,15.90
2009,06,19,10,48,15.90
2009,06,19,10,49,16.00
2009,06,19,10,50,16.00
2009,06,19,10,51,16.10
2009,06,19,10,52,16.10
2009,06,19,10,53,16.20
2009,06,19,10,54,16.30
2009,06,19,10,55,16.30
2009,06,19,10,56,16.40
2009,06,19,10,57,16.40
2009,06,19,10,58,16.40
2009,06,19,10,59,16.40
2009,06,19,11,00,16.40
2009,06,19,11,01,16.40
2009,06,19,11,02,16.40
2009,06,19,11,03,16.50
2009,06,19,11,04,16.60
2009,06,19,11,05,16.70
2009,06,19,11,06,16.80
2009,06,19,11,07,16.90
2009,06,19,11,08,17.10
2009,06,19,11,09,17.20
2009,06,19,11,10,17.40
2009,06,19,11,11,17.50
2009,06,19,11,12,17.60
2009,06,19,11,13,17.80
2009,06,19,11,14,17.90
2009,06,19,11,15,17.90
2009,06,19,11,16,17.90
2009,06,19,11,17,18.00
2009,06,19,11,18,18.10
2009,06,19,11,19,18.10
2009,06,19,11,20,18.10
2009,06,19,11,21,18.10
2009,06,19,11,22,18.10
2009,06,19,11,23,18.20
2009,06,19,11,24,18.30
2009,06,19,11,25,18.30
2009,06,19,11,26,18.40
2009,06,19,11,27,18.40
2009,06,19,11,28,18.50
2009,06,19,11,29,18.60
2009,06,19,11,30,18.70
2009,06,19,11,31,18.70
2009,06,19,11,32,18.80
2009,06,19,11,33,18.90
2009,06,19,11,34,18.80
2009,06,19,11,35,18.80
2009,06,19,11,36,18.80
2009,06,19,11,37,18.70
2009,06,19,11,38,18.70
2009,06,19,11,39,18.60
2009,06,19,11,40,18.60
2009,06,19,11,41,18.60
2009,06,19,11,42,18.60
2009,06,19,11,43,18.60
2009,06,19,11,44,18.60
2009,06,19,11,45,18.70
2009,06,19,11,46,18.70
2009,06,19,11,47,18.70
2009,06,19,11,48,18.80
2009,06,19,11,49,18.90
2009,06,19,11,50,18.90
2009,06,19,11,51,18.90
2009,06,19,11,52,18.90
2009,06,19,11,53,18.90
2009,06,19,11,54,18.90
2009,06,19,11,55,19.00
2009,06,19,11,56,19.10
2009,06,19,11,57,19.10
2009,06,19,11,58,19.20
2009,06,19,11,59,19.30
2009,06,19,12,00,19.30
2009,06,19,12,01,19.40
2009,06,19,12,02,19.40
2009,06,19,12,03,19.50
2009,06,19,12,04,19.50
2009,06,19,12,05,19.60
2009,06,19,12,06,19.50
2009,06,19,12,07,19.40
2009,06,19,12,08,19.20
2009,06,19,12,09,19.10
2009,06,19,12,10,18.80
2009,06,19,12,11,18.70
2009,06,19,12,12,18.60
2009,06,19,12,13,18.60
2009,06,19,12,14,18.60
2009,06,19,12,15,18.60
2009,06,19,12,16,18.60
2009,06,19,12,17,18.60
2009,06,19,12,18,18.60
2009,06,19,12,19,18.70
2009,06,19,12,20,18.80
2009,06,19,12,21,18.80
2009,06,19,12,22,18.90
2009,06,19,12,23,18.90
2009,06,19,12,24,18.90
2009,06,19,12,25,18.90
2009,06,19,12,26,18.90
2009,06,19,12,27,19.00
2009,06,19,12,28,19.10
2009,06,19,12,29,19.10
2009,06,19,12,30,19.10
2009,06,19,12,31,19.20
2009,06,19,12,32,19.30
2009,06,19,12,33,19.40
2009,06,19,12,34,19.50
2009,06,19,12,35,19.70
2009,06,19,12,36,19.70
2009,06,19,12,37,19.70
2009,06,19,12,38,19.70
2009,06,19,12,39,19.60
2009,06,19,12,40,19.50
2009,06,19,12,41,19.40
2009,06,19,12,42,19.30
2009,06,19,12,43,19.20
2009,06,19,12,44,19.20
2009,06,19,12,45,19.20
2009,06,19,12,46,19.30
2009,06,19,12,47,19.30
2009,06,19,12,48,19.30
2009,06,19,12,49,19.30
2009,06,19,12,50,19.30
2009,06,19,12,51,19.30
2009,06,19,12,52,19.30
2009,06,19,12,53,19.30
2009,06,19,12,54,19.40
2009,06,19,12,55,19.40
2009,06,19,12,56,19.50
2009,06,19,12,57,19.50
2009,06,19,12,58,19.60
2009,06,19,12,59,19.70
2009,06,19,13,00,19.60
2009,06,19,13,01,19.50
2009,06,19,13,02,19.40
2009,06,19,13,03,19.30
2009,06,19,13,04,19.30
2009,06,19,13,05,19.40
2009,06,19,13,06,19.50
2009,06,19,13,07,19.60
2009,06,19,13,08,19.40
2009,06,19,13,09,19.30
2009,06,19,13,10,19.30
2009,06,19,13,11,19.30
2009,06,19,13,12,19.30
2009,06,19,13,13,19.30
2009,06,19,13,14,19.20
2009,06,19,13,15,19.20
2009,06,19,13,16,19.20
2009,06,19,13,17,19.30
2009,06,19,13,18,19.40
2009,06,19,13,19,19.40
2009,06,19,13,20,19.40
2009,06,19,13,21,19.30
2009,06,19,13,22,19.20
2009,06,19,13,23,19.20
2009,06,19,13,24,19.20
2009,06,19,13,25,19.30
2009,06,19,13,26,19.40
2009,06,19,13,27,19.40
2009,06,19,13,28,19.40
2009,06,19,13,29,19.30
2009,06,19,13,30,19.30
2009,06,19,13,31,19.40
2009,06,19,13,32,19.50
2009,06,19,13,33,19.40
2009,06,19,13,34,19.30
2009,06,19,13,35,19.30
2009,06,19,13,36,19.30
2009,06,19,13,37,19.40
2009,06,19,13,38,19.40
2009,06,19,13,39,19.40
2009,06,19,13,40,19.30
2009,06,19,13,41,19.40
2009,06,19,13,42,19.40
2009,06,19,13,43,19.40
2009,06,19,13,44,19.40
2009,06,19,13,45,19.40
2009,06,19,13,46,19.40
2009,06,19,13,47,19.30
2009,06,19,13,48,19.40
2009,06,19,13,49,19.50
2009,06,19,13,50,19.60
2009,06,19,13,51,19.60
2009,06,19,13,52,19.50
2009,06,19,13,53,19.50
2009,06,19,13,54,19.40
2009,06,19,13,55,19.20
2009,06,19,13,56,19.10
2009,06,19,13,57,19.10
2009,06,19,13,58,19.00
2009,06,19,13,59,18.90
2009,06,19,14,00,18.90
2009,06,19,14,01,18.90
2009,06,19,14,02,18.90
2009,06,19,14,03,18.80
2009,06,19,14,04,18.90
2009,06,19,14,05,18.90
2009,06,19,14,06,18.90
2009,06,19,14,07,19.00
2009,06,19,14,08,19.10
2009,06,19,14,09,19.00
2009,06,19,14,10,18.90
2009,06,19,14,11,18.80
2009,06,19,14,12,18.80
2009,06,19,14,13,18.60
2009,06,19,14,14,18.40
2009,06,19,14,15,18.40
2009,06,19,14,16,18.30
2009,06,19,14,17,18.30
2009,06,19,14,18,18.20
2009,06,19,14,19,18.20
2009,06,19,14,20,18.30
2009,06,19,14,21,18.30
2009,06,19,14,22,18.30
2009,06,19,14,23,18.30
2009,06,19,14,24,18.40
2009,06,19,14,25,18.40
2009,06,19,14,26,18.50
2009,06,19,14,27,18.50
2009,06,19,14,28,18.60
2009,06,19,14,29,18.60
2009,06,19,14,30,18.60
2009,06,19,14,31,18.70
2009,06,19,14,32,18.70
2009,06,19,14,33,18.60
2009,06,19,14,34,18.60
2009,06,19,14,35,18.60
2009,06,19,14,36,18.70
2009,06,19,14,37,18.70
2009,06,19,14,38,18.70
2009,06,19,14,39,18.80
2009,06,19,14,40,18.80
2009,06,19,14,41,18.80
2009,06,19,14,42,18.80
2009,06,19,14,43,18.70
2009,06,19,14,44,18.80
2009,06,19,14,45,18.80
2009,06,19,14,46,18.90
2009,06,19,14,47,18.90
2009,06,19,14,48,18.90
2009,06,19,14,49,18.80
2009,06,19,14,50,18.80
2009,06,19,14,51,18.70
2009,06,19,14,52,18.70
2009,06,19,14,53,18.60
2009,06,19,14,54,18.60
2009,06,19,14,55,18.60
2009,06,19,14,56,18.60
2009,06,19,14,57,18.50
2009,06,19,14,58,18.40
2009,06,19,14,59,18.40
2009,06,19,15,00,18.30
2009,06,19,15,01,18.30
2009,06,19,15,02,18.20
2009,06,19,15,03,18.20
2009,06,19,15,04,18.10
2009,06,19,15,05,18.10
2009,06,19,15,06,18.10
2009,06,19,15,07,18.10
2009,06,19,15,08,18.10
2009,06,19,15,09,18.10
2009,06,19,15,10,18.00
2009,06,19,15,11,18.10
2009,06,19,15,12,18.10
2009,06,19,15,13,18.10
2009,06,19,15,14,18.10
2009,06,19,15,15,18.10
2009,06,19,15,16,18.10
2009,06,19,15,17,18.20
2009,06,19,15,18,18.30
2009,06,19,15,19,18.50
2009,06,19,15,20,18.60
2009,06,19,15,21,18.70
2009,06,19,15,22,18.90
2009,06,19,15,23,19.00
2009,06,19,15,24,19.10
2009,06,19,15,25,19.00
2009,06,19,15,26,19.00
2009,06,19,15,27,18.90
2009,06,19,15,28,18.70
2009,06,19,15,29,18.60
2009,06,19,15,30,18.50
2009,06,19,15,31,18.50
2009,06,19,15,32,18.40
2009,06,19,15,33,18.40
2009,06,19,15,34,18.40
2009,06,19,15,35,18.40
2009,06,19,15,36,18.40
2009,06,19,15,37,18.30
2009,06,19,15,38,18.30
2009,06,19,15,39,18.30
2009,06,19,15,40,18.30
2009,06,19,15,41,18.30
2009,06,19,15,42,18.30
2009,06,19,15,43,18.30
2009,06,19,15,44,18.40
2009,06,19,15,45,18.60
2009,06,19,15,46,18.70
2009,06,19,15,47,18.80
2009,06,19,15,48,18.90
2009,06,19,15,49,19.10
2009,06,19,15,50,19.00
2009,06,19,15,51,19.10
2009,06,19,15,52,19.10
2009,06,19,15,53,19.10
2009,06,19,15,54,19.10
2009,06,19,15,55,19.10
2009,06,19,15,56,19.10
2009,06,19,15,57,19.00
2009,06,19,15,58,18.90
2009,06,19,15,59,18.90
2009,06,19,16,00,19.00
2009,06,19,16,01,19.10
2009,06,19,16,02,19.10
2009,06,19,16,03,19.20
2009,06,19,16,04,19.20
2009,06,19,16,05,19.20
2009,06,19,16,06,19.20
2009,06,19,16,07,19.30
2009,06,19,16,08,19.30
2009,06,19,16,09,19.30
2009,06,19,16,10,19.30
2009,06,19,16,11,19.20
2009,06,19,16,12,19.20
2009,06,19,16,13,19.20
2009,06,19,16,14,19.20
2009,06,19,16,15,19.30
2009,06,19,16,16,19.30
2009,06,19,16,17,19.30
2009,06,19,16,18,19.40
2009,06,19,16,19,19.40
2009,06,19,16,20,19.50
2009,06,19,16,21,19.50
2009,06,19,16,22,19.50
2009,06,19,16,23,19.40
2009,06,19,16,24,19.40
2009,06,19,16,25,19.30
2009,06,19,16,26,19.20
2009,06,19,16,27,19.10
2009,06,19,16,28,19.00
2009,06,19,16,29,19.00
2009,06,19,16,30,18.90
2009,06,19,16,31,18.90
2009,06,19,16,32,18.80
2009,06,19,16,33,18.70
2009,06,19,16,34,18.60
2009,06,19,16,35,18.50
2009,06,19,16,36,18.40
2009,06,19,16,37,18.30
2009,06,19,16,38,18.30
2009,06,19,16,39,18.30
2009,06,19,16,40,18.30
2009,06,19,16,41,18.30
2009,06,19,16,42,18.30
2009,06,19,16,43,18.30
2009,06,19,16,44,18.30
2009,06,19,16,45,18.30
2009,06,19,16,46,18.30
2009,06,19,16,47,18.30
2009,06,19,16,48,18.30
2009,06,19,16,49,18.30
2009,06,19,16,50,18.30
2009,06,19,16,51,18.30
2009,06,19,16,52,18.30
2009,06,19,16,53,18.30
2009,06,19,16,54,18.30
2009,06,19,16,55,18.30
2009,06,19,16,56,18.30
2009,06,19,16,57,18.40
2009,06,19,16,58,18.40
2009,06,19,16,59,18.50
2009,06,19,17,00,18.60
2009,06,19,17,01,18.60
2009,06,19,17,02,18.60
2009,06,19,17,03,18.60
2009,06,19,17,04,18.70
2009,06,19,17,05,18.70
2009,06,19,17,06,18.70
2009,06,19,17,07,18.70
2009,06,19,17,08,18.70
2009,06,19,17,09,18.70
2009,06,19,17,10,18.60
2009,06,19,17,11,18.60
2009,06,19,17,12,18.50
2009,06,19,17,13,18.50
2009,06,19,17,14,18.50
2009,06,19,17,15,18.50
2009,06,19,17,16,18.50
2009,06,19,17,17,18.60
2009,06,19,17,18,18.60
2009,06,19,17,19,18.60